Hourly Weather Abramy

Today, 22 June, Tuesday

Time Temperature Precipitation Wind Pressure Humidity
00:00 +20°C° 0 mm 3 mps 739 mmHg 89%
01:00 +19°C° 0 mm 3 mps 739 mmHg 91%
02:00 +19°C° 0 mm 3 mps 739 mmHg 91%
03:00 +19°C° 0 mm 3 mps 739 mmHg 92%
04:00 +19°C° 0 mm 3 mps 739 mmHg 93%
05:00 +21°C° 0 mm 3 mps 739 mmHg 87%
06:00 +22°C° 0 mm 4 mps 739 mmHg 81%
07:00 +25°C° 0 mm 4 mps 739 mmHg 75%
08:00 +26°C° 0 mm 4 mps 740 mmHg 70%
09:00 +28°C° 0 mm 4 mps 740 mmHg 65%
10:00 +29°C° 0 mm 4 mps 740 mmHg 61%
11:00 +30°C° 0 mm 4 mps 740 mmHg 57%
12:00 +32°C° 0 mm 4 mps 740 mmHg 54%
13:00 +33°C° 0 mm 4 mps 740 mmHg 51%
14:00 +33°C° 0 mm 4 mps 740 mmHg 52%
15:00 +33°C° 0 mm 5 mps 740 mmHg 53%
16:00 +33°C° 0 mm 5 mps 739 mmHg 54%
17:00 +29°C° 0.7 mm 5 mps 740 mmHg 63%
18:00 +27°C° 0.7 mm 4 mps 740 mmHg 73%
19:00 +23°C° 0.7 mm 4 mps 740 mmHg 82%
20:00 +22°C° 2.4 mm 3 mps 741 mmHg 85%
21:00 +21°C° 2.4 mm 2 mps 741 mmHg 89%
22:00 +20°C° 2.4 mm 2 mps 742 mmHg 92%
23:00 +20°C° 0.5 mm 1 mps 742 mmHg 92%

Tomorrow, 23 June, Wednesday

Time Temperature Precipitation Wind Pressure Humidity
00:00 +20°C° 0.5 mm 1 mps 742 mmHg 92%
01:00 +20°C° 0.5 mm 1 mps 742 mmHg 93%
02:00 +20°C° 0.1 mm 1 mps 742 mmHg 93%
03:00 +20°C° 0.1 mm 1 mps 742 mmHg 92%
04:00 +20°C° 0.1 mm 1 mps 743 mmHg 92%
05:00 +21°C° 0 mm 1 mps 743 mmHg 88%
06:00 +22°C° 0 mm 1 mps 743 mmHg 85%
07:00 +23°C° 0 mm 2 mps 743 mmHg 81%
08:00 +25°C° 0 mm 1 mps 744 mmHg 75%
09:00 +26°C° 0 mm 1 mps 744 mmHg 70%
10:00 +27°C° 0 mm 1 mps 744 mmHg 65%
11:00 +28°C° 0 mm 1 mps 744 mmHg 63%
12:00 +29°C° 0 mm 1 mps 744 mmHg 62%
13:00 +29°C° 0 mm 1 mps 744 mmHg 60%
14:00 +29°C° 0.6 mm 1 mps 744 mmHg 62%
15:00 +29°C° 0.6 mm 1 mps 744 mmHg 63%
16:00 +29°C° 0.6 mm 1 mps 744 mmHg 65%
17:00 +28°C° 0.5 mm 1 mps 744 mmHg 70%
18:00 +27°C° 0.5 mm 1 mps 744 mmHg 75%
19:00 +26°C° 0.5 mm 1 mps 744 mmHg 80%
20:00 +24°C° 0.7 mm 1 mps 745 mmHg 85%
21:00 +23°C° 0.7 mm 1 mps 745 mmHg 89%
22:00 +21°C° 0.7 mm 1 mps 745 mmHg 94%
23:00 +21°C° 0 mm 1 mps 745 mmHg 95%

Day after tomorrow, 24 June, Thursday

Time Temperature Precipitation Wind Pressure Humidity
00:00 +21°C° 0 mm 1 mps 745 mmHg 95%
01:00 +20°C° 0 mm 1 mps 745 mmHg 95%
02:00 +19°C° 0.1 mm 2 mps 745 mmHg 96%
03:00 +19°C° 0.1 mm 2 mps 745 mmHg 96%
04:00 +19°C° 0.1 mm 2 mps 745 mmHg 97%
05:00 +20°C° 0 mm 2 mps 745 mmHg 93%
06:00 +21°C° 0 mm 2 mps 745 mmHg 89%
07:00 +23°C° 0 mm 2 mps 745 mmHg 85%
08:00 +25°C° 0 mm 1 mps 745 mmHg 79%
09:00 +27°C° 0 mm 1 mps 745 mmHg 73%
10:00 +26°C° 0 mm 0 mps 745 mmHg 67%
11:00 +29°C° 0 mm 1 mps 745 mmHg 64%
12:00 +30°C° 0 mm 1 mps 744 mmHg 60%
13:00 +31°C° 0 mm 1 mps 744 mmHg 57%
14:00 +31°C° 0.3 mm 1 mps 744 mmHg 58%
15:00 +31°C° 0.3 mm 1 mps 744 mmHg 59%
16:00 +30°C° 0.3 mm 1 mps 743 mmHg 60%
17:00 +29°C° 0.2 mm 1 mps 743 mmHg 65%
18:00 +28°C° 0.2 mm 1 mps 743 mmHg 70%
19:00 +27°C° 0.2 mm 2 mps 743 mmHg 75%
20:00 +25°C° 1.5 mm 2 mps 743 mmHg 81%
21:00 +24°C° 1.5 mm 2 mps 743 mmHg 87%
22:00 +23°C° 1.5 mm 2 mps 743 mmHg 93%
23:00 +21°C° 0.1 mm 2 mps 742 mmHg 92%

25 June, Friday

Time Temperature Precipitation Wind Pressure Humidity
00:00 +21°C° 0.1 mm 2 mps 742 mmHg 92%
01:00 +21°C° 0.1 mm 2 mps 742 mmHg 91%
02:00 +21°C° 1 mm 2 mps 742 mmHg 91%
03:00 +20°C° 1 mm 2 mps 742 mmHg 91%
04:00 +20°C° 1 mm 2 mps 742 mmHg 91%
05:00 +21°C° 0.3 mm 2 mps 741 mmHg 88%
06:00 +23°C° 0.3 mm 2 mps 741 mmHg 84%
07:00 +23°C° 0.3 mm 2 mps 741 mmHg 81%
08:00 +25°C° 0 mm 3 mps 741 mmHg 76%
09:00 +27°C° 0 mm 3 mps 741 mmHg 71%
10:00 +29°C° 0 mm 3 mps 741 mmHg 66%
11:00 +29°C° 0.5 mm 3 mps 741 mmHg 67%
12:00 +30°C° 0.5 mm 3 mps 741 mmHg 67%
13:00 +30°C° 0.5 mm 3 mps 740 mmHg 67%
14:00 +30°C° 0.6 mm 4 mps 740 mmHg 69%
15:00 +29°C° 0.6 mm 4 mps 740 mmHg 70%
16:00 +29°C° 0.6 mm 5 mps 739 mmHg 72%
17:00 +27°C° 0 mm 5 mps 740 mmHg 76%
18:00 +26°C° 0 mm 5 mps 740 mmHg 80%
19:00 +23°C° 0 mm 5 mps 740 mmHg 84%
20:00 +22°C° 0.2 mm 4 mps 741 mmHg 87%
21:00 +20°C° 0.2 mm 4 mps 741 mmHg 91%
22:00 +19°C° 0.2 mm 3 mps 741 mmHg 94%
23:00 +19°C° 0 mm 3 mps 741 mmHg 94%

26 June, Saturday

Time Temperature Precipitation Wind Pressure Humidity
00:00 +19°C° 0 mm 3 mps 741 mmHg 95%
01:00 +18°C° 0 mm 3 mps 741 mmHg 95%
02:00 +18°C° 0 mm 3 mps 741 mmHg 95%
03:00 +18°C° 0 mm 3 mps 742 mmHg 95%
04:00 +18°C° 0 mm 3 mps 742 mmHg 95%
05:00 +18°C° 0 mm 3 mps 742 mmHg 92%
06:00 +18°C° 0 mm 3 mps 742 mmHg 90%
07:00 +18°C° 0 mm 4 mps 743 mmHg 87%
08:00 +19°C° 0 mm 4 mps 743 mmHg 81%
09:00 +21°C° 0 mm 4 mps 743 mmHg 75%
10:00 +22°C° 0 mm 4 mps 744 mmHg 69%
11:00 +22°C° 0 mm 4 mps 744 mmHg 70%
12:00 +22°C° 0 mm 4 mps 744 mmHg 70%
13:00 +22°C° 0 mm 4 mps 744 mmHg 71%
14:00 +22°C° 0.1 mm 4 mps 744 mmHg 72%
15:00 +22°C° 0.1 mm 4 mps 744 mmHg 72%
16:00 +22°C° 0.1 mm 4 mps 744 mmHg 73%
17:00 +21°C° 0.1 mm 3 mps 744 mmHg 76%
18:00 +21°C° 0.1 mm 2 mps 744 mmHg 79%
19:00 +20°C° 0.1 mm 2 mps 744 mmHg 81%
20:00 +19°C° 0 mm 2 mps 744 mmHg 84%
21:00 +18°C° 0 mm 2 mps 744 mmHg 88%
22:00 +17°C° 0 mm 2 mps 744 mmHg 91%
23:00 +17°C° 0 mm 2 mps 744 mmHg 91%

27 June, Sunday

Time Temperature Precipitation Wind Pressure Humidity
00:00 +16°C° 0 mm 2 mps 745 mmHg 92%
01:00 +16°C° 0 mm 2 mps 745 mmHg 92%
02:00 +15°C° 0 mm 2 mps 745 mmHg 92%
03:00 +15°C° 0 mm 2 mps 745 mmHg 92%
04:00 +15°C° 0 mm 2 mps 745 mmHg 92%
05:00 +16°C° 0 mm 3 mps 745 mmHg 87%
06:00 +17°C° 0 mm 3 mps 745 mmHg 81%
07:00 +19°C° 0 mm 3 mps 746 mmHg 75%
08:00 +20°C° 0 mm 3 mps 746 mmHg 71%
09:00 +21°C° 0 mm 3 mps 746 mmHg 66%
10:00 +22°C° 0 mm 4 mps 746 mmHg 62%
11:00 +23°C° 0 mm 4 mps 746 mmHg 59%
12:00 +25°C° 0 mm 4 mps 746 mmHg 57%
13:00 +25°C° 0 mm 4 mps 746 mmHg 55%
14:00 +25°C° 0 mm 4 mps 746 mmHg 56%
15:00 +25°C° 0 mm 4 mps 746 mmHg 56%
16:00 +25°C° 0 mm 3 mps 745 mmHg 57%
17:00 +24°C° 0 mm 3 mps 745 mmHg 61%
18:00 +23°C° 0 mm 2 mps 745 mmHg 65%
19:00 +21°C° 0 mm 2 mps 745 mmHg 69%
20:00 +20°C° 0 mm 2 mps 745 mmHg 72%
21:00 +19°C° 0 mm 2 mps 746 mmHg 75%
22:00 +18°C° 0 mm 3 mps 746 mmHg 77%
23:00 +17°C° 0 mm 2 mps 746 mmHg 80%
Show more

We Need Your Consent

Meteoprog and our Service Providers may store and access personal data such as cookies, device identifiers or other similar technologies on your device and process such data to personalise content and ads, as well as provide social media features and to analyse the traffic.

  • Store and/or access information on your device

    Cookies, device identifiers or other information can be stored or accessed on your device for the purposes indicated above.

  • Personalised ads and content, ad and content measurement, audience insights, and products development

    Ads and content can be personalised based on a profile. More data can be added to better personalise ads and content. Ad and content performance can be measured. Insights about the audience who saw the ads and content can be derived. Such data can be used to develop or improve user’s experience, systems and software.

By clicking ‘I Agree’ you will allow the use of indicated cookies, device identifiers, web beacons or other similar technologies. Your settings can be changed in the browser on your device.

For certain purposes, legitimate interests may be relied on, rather than consent. You can read more about this in our Privacy and Cookie Policy.